GEFSNGP_850_meantemp_192.txt.gz
Temperature
28 29 29 29 29 29 29 30 30 30 30 29 27 27 26 25 25 24 24 23 23 22 22 21 21 21 21 21 21 20 20 20 20 20 20 20 20 19 19 19 19 19 18 18
27 28 28 28 28 28 28 29 29 29 29 27 26 25 24 24 24 23 23 23 22 22 21 21 21 21 21 20 20 20 20 20 19 19 19 19 19 19 19 19 19 18 18 18
27 27 27 27 28 28 28 28 28 28 27 26 25 24 24 23 23 23 22 22 22 21 21 21 20 20 20 20 20 19 19 19 19 19 19 19 19 19 18 19 19 18 18 17
26 25 25 27 27 27 27 27 27 26 25 25 24 23 22 22 22 22 21 21 21 21 20 20 20 20 20 20 19 19 19 19 19 19 19 19 18 18 18 18 18 18 18 17
25 25 26 26 25 26 26 25 25 25 24 23 22 23 23 21 21 20 20 20 19 20 20 20 20 19 19 19 19 19 19 19 19 19 18 18 18 18 18 18 18 17 17 17
24 24 25 25 25 24 25 24 24 23 23 22 22 24 24 20 19 19 18 18 19 19 19 19 19 19 19 19 19 19 19 18 19 19 18 18 18 18 17 17 17 17 17 16
23 24 25 24 23 23 24 23 22 22 22 22 22 22 20 19 18 18 17 18 18 18 18 18 18 18 18 18 18 18 18 18 18 18 18 18 17 17 17 17 16 16 16 16
23 23 23 22 22 23 22 20 20 20 20 20 19 18 18 18 17 17 17 17 17 17 17 17 17 17 18 18 18 17 18 18 18 18 17 17 17 17 16 16 16 16 16 16
22 22 20 19 20 19 19 19 19 19 19 18 18 18 17 17 17 17 17 17 17 17 17 17 17 17 17 17 17 17 17 17 17 17 17 17 17 16 16 16 16 15 15 15
20 20 19 19 19 18 18 18 18 18 18 18 18 17 17 17 17 16 16 16 16 16 16 16 16 16 16 16 17 16 16 16 16 16 16 16 16 16 16 15 15 15 15 15
19 19 19 18 18 17 17 17 17 17 17 17 17 17 16 16 16 16 16 16 15 15 15 15 15 15 15 16 16 16 16 16 16 16 16 15 15 15 15 15 15 15 15 15
19 18 18 18 17 17 16 16 16 16 16 16 16 16 16 16 15 15 15 15 15 15 15 15 15 15 15 15 15 15 15 15 15 15 15 15 15 15 15 15 14 14 14 14
16 16 16 16 16 16 16 16 16 16 15 15 15 15 15 15 15 15 15 14 14 14 14 14 14 14 14 15 15 15 14 14 15 15 15 15 15 14 14 14 14 14 14 14
15 14 15 15 15 15 15 15 15 15 15 15 15 14 14 14 14 14 14 14 14 14 13 13 13 13 14 14 14 14 14 14 14 14 14 14 14 14 14 13 13 13 13 13
14 14 14 14 14 14 14 14 14 14 14 14 14 14 14 14 13 13 13 13 13 13 13 13 13 13 13 13 13 13 14 14 14 14 13 13 13 13 13 13 13 12 12 12
14 14 14 14 13 14 14 14 14 14 14 14 13 13 13 13 13 12 12 12 12 12 12 12 12 12 12 12 12 13 13 13 13 13 13 13 12 12 12 12 12 12 12 11
13 13 13 13 13 13 13 13 13 13 13 13 13 12 12 12 12 12 12 12 11 11 11 11 11 11 12 12 12 12 12 12 12 12 12 12 12 12 12 12 12 11 11 11
12 12 12 12 13 13 12 12 12 12 12 12 12 11 11 11 11 11 11 11 11 11 11 11 11 11 11 11 11 11 11 12 11 11 11 11 11 11 11 11 11 11 10 10
12 12 12 12 12 12 12 11 11 11 11 11 11 11 10 10 10 10 10 10 10 10 10 10 11 11 11 11 11 11 11 11 11 11 11 10 11 10 10 10 10 10 10 9
11 11 11 11 11 11 11 11 11 11 10 10 10 10 10 10 10 10 10 9 10 10 10 10 10 10 10 10 10 10 10 10 10 10 10 10 10 10 10 9 9 9 9 9
11 11 11 11 11 11 10 10 10 10 10 10 10 10 9 9 9 9 9 9 9 9 9 9 9 10 10 10 10 10 10 10 10 9 9 9 9 9 9 9 9 8 8 8
10 10 10 10 10 10 10 10 10 10 10 9 9 9 9 9 9 9 9 9 9 9 9 9 9 9 9 9 9 9 9 9 9 9 9 9 8 8 8 8 8 8 8 8
10 10 9 10 9 9 9 9 9 9 9 9 9 9 9 9 8 8 8 8 8 8 8 8 8 9 9 9 9 9 9 9 9 9 8 8 8 8 8 7 7 7 7 7
9 9 9 9 9 9 9 9 9 9 9 9 9 8 8 8 8 8 8 8 8 8 8 8 8 8 8 8 8 8 8 8 8 8 8 8 7 7 7 7 7 7 7 6
9 9 9 9 9 9 9 9 9 9 9 9 8 8 8 8 8 8 8 8 8 8 7 8 8 8 8 8 8 8 8 8 8 7 7 7 7 7 7 7 6 6 6 6
9 9 9 8 8 8 9 9 9 8 8 8 8 8 8 8 8 8 7 7 8 7 7 7 7 7 7 7 7 7 7 7 7 7 7 7 7 6 6 6 6 6 6 5
9 8 8 8 8 8 8 8 8 8 8 8 8 8 8 8 8 8 7 7 7 7 7 7 7 7 7 7 7 7 7 7 6 6 6 6 6 6 6 5 5 5 5 5

GEFSNGP_850_meantemp_198.txt.gz
Temperature
30 31 31 31 31 32 31 31 31 31 31 30 29 29 29 29 28 27 26 25 25 24 24 24 24 23 23 23 22 22 21 21 20 20 20 20 20 20 19 19 19 19 19 19
28 30 31 30 31 32 31 31 31 31 30 30 29 28 28 28 27 26 25 24 24 23 23 23 23 23 22 22 22 21 21 21 20 20 20 20 19 19 19 19 19 19 19 18
27 29 29 29 31 31 31 31 31 30 29 29 28 26 26 26 25 25 24 23 23 22 22 22 22 22 22 21 21 21 21 20 20 20 19 19 19 19 19 19 19 18 18 18
27 27 26 29 31 30 30 30 30 29 29 28 27 26 25 25 24 24 23 22 22 22 21 21 21 21 21 21 21 20 20 20 20 19 19 19 19 19 19 19 18 18 18 18
26 26 27 28 28 28 27 27 28 28 28 27 26 25 24 23 23 22 22 21 21 21 21 21 21 21 21 20 20 20 20 19 19 19 19 19 19 19 18 18 18 18 18 18
25 25 25 26 27 27 27 25 25 26 25 25 25 25 24 22 21 21 21 21 20 20 20 20 20 20 20 20 20 19 19 19 19 19 19 18 18 18 18 18 18 18 18 18
25 25 25 26 26 26 24 23 23 23 23 24 24 23 22 21 21 20 20 20 19 19 19 19 19 19 19 19 19 19 19 19 18 18 18 18 18 18 18 17 17 17 17 17
24 24 23 24 24 23 22 21 21 22 22 22 22 21 21 20 20 19 19 19 19 18 18 18 18 18 18 18 18 18 18 18 18 18 18 18 18 18 17 17 17 17 17 17
23 23 22 22 22 21 21 21 21 21 21 21 21 20 20 19 19 19 18 18 18 18 18 18 18 18 18 18 18 17 17 17 17 17 17 17 17 17 17 17 16 16 16 16
22 23 23 22 22 21 20 20 20 20 20 20 20 19 19 19 18 18 18 17 17 17 17 17 17 17 17 17 17 17 17 17 17 17 17 17 17 17 17 16 16 16 16 16
22 21 21 21 21 20 20 20 19 20 19 19 19 18 18 18 17 17 17 17 17 17 17 17 16 16 16 16 16 16 16 16 16 16 16 16 16 16 16 16 16 16 16 15
20 20 20 20 20 19 19 19 19 19 18 18 18 17 17 17 17 17 16 16 16 16 16 16 16 16 15 16 16 15 15 15 16 16 16 16 16 16 16 16 15 15 15 15
19 19 18 19 19 19 19 18 18 18 18 17 17 17 17 16 16 16 16 16 16 15 15 15 15 15 15 15 15 15 15 15 15 15 15 15 15 15 15 15 15 15 15 15
18 17 17 17 18 17 17 17 17 17 17 17 16 16 16 16 16 15 15 15 15 15 14 14 14 14 14 14 14 14 14 14 14 14 15 15 15 15 15 15 14 14 14 14
17 17 16 16 16 17 16 16 16 16 16 16 16 16 15 15 15 15 15 14 14 14 14 13 13 13 13 13 13 14 14 14 14 14 14 14 14 14 14 14 13 13 13 13
16 16 16 16 16 16 16 16 16 16 16 15 15 15 15 15 14 14 14 14 13 13 13 13 13 12 13 13 13 13 13 13 13 13 13 13 13 13 13 13 13 13 12 12
16 15 15 15 15 15 15 15 15 15 15 15 15 14 14 14 13 13 13 13 12 12 12 12 12 12 12 12 12 12 12 12 12 13 13 13 13 13 12 12 12 12 12 12
15 15 15 15 15 15 15 14 14 14 14 14 14 14 13 13 12 12 12 12 12 12 11 11 11 11 11 11 11 11 11 11 12 12 12 12 12 12 12 12 12 11 11 11
15 15 15 14 14 14 14 14 14 13 13 13 13 12 12 12 12 11 11 11 11 11 11 11 11 11 11 11 11 11 11 11 11 11 11 11 11 11 11 11 11 11 11 11
14 14 14 14 13 13 13 13 13 13 12 12 12 12 11 11 11 11 11 10 10 10 10 10 10 10 10 11 11 11 11 11 11 11 11 11 11 11 11 11 11 10 10 10
14 13 13 13 13 13 12 12 12 12 11 11 11 11 11 10 10 10 10 10 9 10 10 10 10 10 10 10 10 11 11 10 10 10 11 10 10 10 10 10 10 10 9 9
13 13 12 12 12 12 12 11 11 11 11 11 11 11 10 10 10 10 9 9 9 9 9 9 9 9 10 10 10 10 10 10 10 10 10 10 10 10 10 9 9 9 9 9
12 12 12 12 11 11 11 11 11 10 10 10 10 10 10 10 10 9 9 9 9 9 9 9 9 9 9 10 10 10 10 10 10 10 9 9 9 9 9 9 9 9 8 8
11 11 11 11 11 11 10 10 10 10 10 10 10 10 10 10 10 9 9 9 9 9 9 9 9 9 9 9 9 9 9 9 9 9 9 9 9 9 9 8 8 8 8 8
11 11 11 10 10 10 10 10 10 10 10 10 10 10 10 10 10 9 9 9 9 9 9 9 9 9 9 9 9 9 8 8 8 8 8 8 8 8 8 8 8 8 8 7
11 11 10 10 10 10 10 10 10 10 10 10 10 10 10 10 10 9 9 9 9 9 9 9 9 9 9 9 8 8 8 8 8 8 8 8 8 8 7 7 7 7 7 7
11 11 10 10 10 10 10 10 10 10 10 10 10 10 10 10 10 9 9 9 9 9 9 9 9 9 9 9 8 8 8 8 8 8 8 8 8 7 7 7 7 7 7 7

GEFSNGP_850_meantemp_204.txt.gz
Temperature
22 23 25 25 25 25 24 23 22 22 21 21 21 20 21 21 21 21 21 22 22 22 22 23 22 22 22 21 21 21 21 20 21 21 20 20 20 19 19 19 19 19 18 18
22 24 24 24 24 25 24 23 22 22 21 21 21 21 21 21 21 20 20 21 21 21 22 22 21 21 21 21 21 21 20 20 20 20 20 20 19 19 19 19 19 18 18 18
20 22 23 22 23 23 22 22 22 21 21 20 20 20 20 20 20 20 20 21 21 21 21 21 21 21 20 20 20 20 20 20 20 20 19 19 19 19 18 18 18 18 18 18
18 21 21 21 22 23 22 21 21 20 20 20 19 20 20 20 20 20 20 20 20 20 20 20 20 20 20 20 20 20 20 20 19 19 19 19 18 18 18 18 18 18 18 18
17 19 20 21 21 22 20 19 19 19 19 19 19 19 19 19 20 20 20 20 20 20 20 20 20 20 20 20 20 20 20 19 19 19 18 18 18 18 18 18 18 18 18 17
17 19 19 20 21 22 20 18 18 18 18 18 18 17 17 18 19 19 19 19 19 19 19 19 19 19 20 19 19 19 19 19 19 18 18 18 18 18 18 17 17 17 17 17
17 17 18 19 20 21 19 18 18 18 18 18 17 17 17 18 18 18 18 19 19 19 19 19 18 18 18 18 18 18 18 18 18 18 18 18 17 17 17 17 17 17 17 17
15 16 17 18 18 17 17 18 18 18 18 18 18 18 18 18 17 18 18 18 18 18 17 18 18 18 18 17 17 17 17 17 17 17 17 17 17 17 17 17 17 16 16 16
15 15 16 17 17 17 18 17 17 17 17 18 17 17 17 17 17 17 17 17 17 17 17 17 17 17 17 17 16 16 16 16 16 16 16 16 16 16 16 16 16 16 16 16
14 15 15 16 17 17 17 17 17 17 17 17 17 17 17 16 16 16 16 16 16 16 16 16 16 16 16 16 15 15 15 16 16 16 15 15 16 16 16 15 15 16 15 15
14 14 15 16 16 16 17 17 17 17 17 17 16 16 16 16 16 15 15 15 15 15 15 15 15 15 15 15 15 15 15 15 15 15 15 15 15 15 15 15 15 15 15 15
13 14 13 14 15 16 16 16 16 16 16 16 16 16 16 15 15 15 15 15 15 15 15 14 14 14 14 14 14 14 14 14 14 14 14 14 14 14 14 14 14 14 14 14
15 15 15 15 15 15 16 16 16 16 16 15 15 16 15 15 15 14 14 14 14 14 14 14 14 14 14 14 14 14 14 14 14 14 14 14 14 14 14 14 14 14 14 14
15 15 14 15 15 15 15 15 15 15 15 15 15 15 15 14 14 14 14 14 14 14 14 13 13 13 13 13 13 13 13 13 13 13 13 13 13 13 13 13 13 13 13 13
14 15 14 14 15 15 15 15 15 15 14 14 14 14 14 14 14 14 14 14 14 13 13 13 13 13 13 13 13 13 13 12 12 12 12 12 12 12 12 12 12 12 12 12
14 14 14 14 14 14 14 14 14 14 14 14 14 14 14 14 13 13 13 13 13 13 13 13 12 12 12 12 12 12 12 12 12 12 12 12 12 12 12 12 11 11 11 11
14 14 14 14 14 14 14 14 14 14 13 13 13 13 13 13 13 13 13 13 13 12 12 12 12 12 12 11 11 11 11 11 11 11 11 11 11 11 11 11 11 11 11 11
14 14 14 14 14 14 13 13 13 13 13 13 13 13 13 13 12 12 12 12 12 12 11 11 11 11 11 11 11 11 11 11 11 11 11 11 11 11 10 10 10 10 10 10
14 14 14 13 13 13 13 13 13 13 12 12 12 12 12 12 12 12 11 11 11 11 11 11 10 11 10 10 10 10 10 10 10 10 10 10 10 10 10 10 10 10 10 9
13 13 13 13 13 13 12 12 12 12 12 12 12 11 11 11 11 11 11 11 10 10 10 10 10 10 10 10 10 10 10 10 10 10 10 10 10 10 9 9 9 9 9 9
13 13 13 13 12 12 12 12 12 11 11 11 11 11 11 11 10 10 10 10 10 10 10 10 10 10 10 10 10 10 10 10 9 9 9 9 9 9 9 9 9 9 9 9
12 12 12 12 12 11 11 11 11 11 11 11 11 11 10 10 10 10 10 9 9 9 9 9 9 9 9 10 10 10 9 9 9 9 9 9 9 9 9 9 9 9 8 8
12 12 12 11 11 11 11 11 11 11 11 11 10 10 10 10 9 9 9 9 9 9 9 9 9 9 9 9 9 9 9 9 9 9 9 9 9 9 9 8 8 8 8 8
12 11 11 11 11 11 11 10 10 10 10 10 10 10 10 10 9 9 9 9 9 9 9 9 9 9 9 9 9 9 9 9 9 9 8 8 8 8 8 8 8 8 7 7
11 11 11 11 11 10 10 10 10 10 10 10 10 10 10 10 10 9 9 9 9 9 9 9 9 9 9 9 9 9 8 8 8 8 8 8 8 8 8 8 7 7 7 7
11 11 10 10 10 10 10 10 10 10 10 10 10 10 10 10 9 9 9 9 9 9 9 9 9 9 9 8 8 8 8 8 8 8 8 8 8 8 7 7 7 7 7 7
11 10 10 10 10 10 10 10 10 10 10 10 10 10 10 9 9 9 9 9 9 9 9 9 9 8 8 8 8 8 8 8 8 8 8 7 7 7 7 7 7 7 7 7

GEFSNGP_850_meantemp_210.txt.gz
Temperature
19 20 21 21 21 20 20 19 19 20 19 19 19 18 18 19 19 19 20 20 20 21 21 21 21 21 21 21 21 20 21 21 20 20 19 19 19 19 19 19 19 18 18 18
20 20 20 20 20 20 20 20 19 19 19 18 18 18 18 18 18 18 19 20 20 20 20 20 20 20 20 20 20 20 21 20 20 20 19 19 19 19 19 18 18 18 18 18
18 19 20 19 19 19 19 18 19 19 19 18 17 17 17 18 18 18 19 19 19 20 20 20 20 20 20 20 20 20 20 20 20 19 19 19 18 18 18 18 18 17 17 17
16 18 19 18 18 19 18 18 17 17 17 17 17 17 18 18 18 18 18 19 19 19 19 19 19 19 19 19 19 19 19 19 19 19 19 19 18 18 18 18 17 17 17 17
14 16 17 18 18 18 18 17 17 17 17 16 17 17 17 18 18 18 18 19 19 19 19 19 19 19 19 19 19 19 19 18 18 18 18 18 18 18 18 17 17 17 17 17
14 17 17 17 18 18 18 17 16 16 16 16 16 16 16 17 18 18 18 18 18 18 19 19 19 18 18 18 18 18 18 18 18 17 17 17 17 17 17 17 17 17 17 17
14 15 16 16 16 17 18 17 16 16 16 16 15 16 16 17 17 17 17 17 18 18 18 18 18 18 18 18 17 17 17 17 17 17 17 17 17 17 16 16 16 16 16 16
13 15 15 15 15 16 15 16 16 16 16 16 16 16 16 16 16 16 17 17 17 17 17 17 17 17 17 17 17 16 16 16 16 16 16 16 16 16 16 16 16 16 16 16
13 13 13 14 14 15 15 15 16 16 16 16 15 15 15 16 16 16 16 16 16 16 16 16 16 16 16 16 16 16 16 16 16 16 15 15 15 15 15 15 15 15 15 15
12 12 13 14 15 15 15 15 16 16 16 16 15 15 15 15 15 16 16 16 16 16 16 15 15 15 15 15 15 15 15 15 15 15 15 15 15 15 15 14 14 14 14 14
11 12 13 14 14 15 15 15 15 16 16 15 15 15 15 15 15 15 15 15 15 15 15 14 14 14 14 14 14 14 14 14 14 14 14 14 14 14 14 14 14 14 14 14
12 12 12 13 14 14 14 14 15 15 15 15 15 14 14 14 14 14 14 14 14 14 14 14 14 14 14 14 14 13 13 13 13 13 13 13 13 13 13 13 13 13 13 13
13 14 14 14 14 14 14 14 14 14 14 14 14 14 14 14 14 14 14 14 14 14 14 13 13 13 13 13 13 13 13 13 13 13 12 12 13 13 13 13 13 13 12 12
14 13 13 13 13 14 14 14 14 14 14 14 13 13 13 13 13 13 13 13 13 13 13 13 13 13 13 13 12 12 12 12 12 12 12 12 12 12 12 12 12 12 12 12
13 13 13 13 13 13 13 13 13 13 13 13 13 13 13 13 13 13 13 13 13 12 12 12 12 12 12 12 12 12 12 12 12 12 11 11 11 11 11 11 11 11 11 11
13 13 13 13 13 13 13 13 13 13 13 13 13 13 13 12 12 12 12 12 12 12 12 12 12 12 12 11 11 11 11 11 11 11 11 11 11 11 11 11 10 10 10 10
12 12 12 12 12 12 12 13 12 12 12 12 12 12 12 12 12 12 12 12 11 11 11 11 11 11 11 11 11 11 11 11 10 10 10 10 10 10 10 10 10 10 10 10
13 12 12 12 12 12 12 12 12 12 12 12 12 12 12 12 11 11 11 11 11 11 11 11 11 11 11 10 10 10 10 10 10 10 10 10 10 10 10 9 9 9 9 9
12 12 12 12 12 12 12 12 11 11 11 11 11 11 11 11 11 11 10 10 11 11 10 10 10 10 10 10 10 10 10 10 9 9 9 9 9 9 9 9 9 9 9 9
12 12 12 12 12 12 11 11 11 11 11 11 11 11 11 10 10 10 10 10 10 10 10 10 10 10 10 10 9 9 9 9 9 9 9 9 9 9 9 9 9 9 9 8
12 11 11 11 11 11 11 11 11 11 11 11 11 11 10 10 10 10 10 9 9 9 9 9 9 9 9 9 9 9 9 9 9 9 9 9 9 9 8 8 8 8 8 8
11 11 11 11 11 11 11 11 11 10 10 10 10 10 10 10 9 9 9 9 9 9 9 9 9 9 9 9 9 9 9 9 9 8 8 8 8 8 8 8 8 8 8 7
11 11 11 11 11 10 10 10 10 10 10 10 10 10 10 10 9 9 9 9 9 9 9 9 9 9 9 9 9 9 8 8 8 8 8 8 8 8 8 8 8 7 7 7
11 11 10 10 10 10 10 10 10 10 10 10 10 10 10 9 9 9 9 9 9 9 9 8 8 8 8 8 8 8 8 8 8 8 8 8 7 7 7 7 7 7 7 7
10 10 10 10 10 10 10 10 10 10 10 10 10 9 9 9 9 9 9 9 9 8 8 8 8 8 8 8 8 8 8 8 8 8 7 7 7 7 7 7 7 7 7 6
10 10 10 10 10 10 10 10 10 10 10 9 9 9 9 9 9 9 9 9 9 9 9 8 8 8 8 8 8 8 8 8 8 7 7 7 7 7 7 7 7 7 6 6
10 10 10 10 10 10 10 10 10 9 9 9 9 9 9 9 9 9 9 9 9 9 9 8 8 8 8 8 8 8 8 8 7 7 7 7 7 7 7 7 7 6 6 6

GEFSNGP_850_meantemp_216.txt.gz
Temperature
27 28 28 28 28 28 28 29 29 29 29 28 27 26 25 24 23 23 22 22 21 21 21 20 20 20 20 19 19 19 19 19 19 20 20 19 19 19 19 19 18 18 18 18
26 27 27 27 27 28 28 28 28 28 28 27 26 25 24 24 23 22 22 21 21 20 20 20 20 19 19 19 19 19 19 19 19 19 19 19 19 19 19 18 18 18 18 17
25 27 26 26 27 27 27 27 27 27 27 26 25 25 24 23 22 22 21 21 20 20 20 19 19 19 19 19 19 19 19 19 19 19 18 18 18 18 18 18 18 17 17 17
25 25 24 26 26 26 26 26 26 26 25 25 24 23 22 22 21 21 20 20 19 19 19 19 19 18 18 18 18 18 18 18 18 18 18 18 18 17 17 17 17 17 17 17
24 24 25 25 25 25 25 25 25 24 24 23 23 22 22 20 20 19 19 18 18 18 18 18 18 18 18 18 18 18 18 18 17 17 17 17 17 17 17 17 17 17 16 16
23 23 23 24 24 23 24 24 23 23 22 22 22 23 23 19 19 18 18 18 17 17 17 17 17 17 17 17 17 17 17 17 16 16 16 17 17 16 16 16 16 16 16 16
22 23 24 23 22 23 23 23 21 21 21 21 21 21 19 18 18 17 17 17 17 17 17 16 16 16 16 16 16 16 16 16 16 16 16 16 16 16 15 15 15 15 15 15
22 22 22 21 22 22 21 20 19 20 20 19 19 18 18 17 17 16 16 16 16 16 16 16 16 16 16 16 16 16 16 15 15 15 15 15 15 15 15 15 15 15 14 15
21 21 20 19 19 19 18 18 18 18 18 18 18 18 17 17 16 16 16 15 15 15 15 15 15 15 15 15 15 15 15 15 15 15 15 14 14 14 14 14 14 14 14 14
19 20 19 18 18 17 17 17 17 17 17 17 17 17 16 16 15 15 15 15 15 15 15 14 14 14 15 15 15 15 14 14 14 14 14 14 14 14 14 14 14 14 14 14
18 19 18 18 17 17 16 16 16 16 16 16 16 16 15 15 15 15 15 14 14 14 14 14 14 14 14 14 14 14 14 14 14 14 13 13 13 13 13 13 13 13 13 13
18 18 18 17 16 16 16 16 16 16 15 15 15 15 15 14 14 14 14 14 14 13 13 13 13 13 13 13 13 13 13 13 13 13 13 13 13 13 13 13 13 13 13 12
17 16 16 16 15 15 15 15 15 15 15 14 14 14 14 14 14 13 13 13 13 13 13 12 12 12 12 12 12 12 12 12 12 12 12 12 12 12 12 12 12 12 12 12
15 15 15 15 15 15 14 14 14 14 14 14 14 14 14 13 13 13 13 13 12 12 12 12 12 12 12 12 12 12 12 12 12 12 12 12 12 12 12 11 11 11 12 12
14 14 14 14 14 14 14 14 14 14 14 13 13 13 13 13 12 12 12 12 12 12 12 12 12 11 11 11 11 11 11 11 11 11 11 11 11 11 11 11 11 11 11 11
14 14 14 14 14 14 14 14 14 13 13 13 13 13 12 12 12 11 11 11 11 11 11 11 11 11 11 11 11 11 11 11 11 11 11 11 11 11 11 10 10 10 10 10
14 14 14 13 13 13 13 13 13 13 13 12 12 12 12 11 11 11 11 11 11 11 11 11 10 10 10 10 10 10 10 10 10 10 10 10 10 10 10 10 10 10 10 10
13 13 13 13 13 13 13 12 12 12 12 12 11 11 11 11 11 11 11 10 10 10 10 10 10 10 10 10 10 10 10 10 10 10 10 10 10 10 10 9 9 9 9 9
13 13 12 12 12 12 12 12 12 11 11 11 11 11 11 11 10 10 10 10 10 10 10 10 10 9 9 10 10 10 10 10 10 9 9 9 9 9 9 9 9 9 9 9
12 12 12 12 12 12 12 11 11 11 11 10 10 10 10 10 10 10 10 10 10 9 9 9 9 9 9 9 9 9 9 9 9 9 9 9 9 9 9 9 9 9 9 8
12 12 11 11 11 11 11 11 11 10 10 10 10 10 10 10 10 10 10 10 9 9 9 9 9 9 9 9 9 9 9 9 9 9 9 9 9 8 8 8 8 8 8 8
11 11 11 11 11 10 10 10 10 10 10 10 10 10 10 10 10 10 9 9 9 9 9 9 9 9 9 9 9 9 9 9 9 9 8 8 8 8 8 8 8 8 8 8
11 11 10 10 10 10 10 10 10 10 10 10 10 10 10 10 10 10 9 9 9 9 9 9 9 9 9 9 9 9 9 9 8 8 8 8 8 8 8 8 8 7 7 7
10 10 10 10 10 10 10 10 10 10 10 9 9 9 9 9 9 9 9 9 9 9 9 9 9 9 9 9 9 9 8 8 8 8 8 8 8 8 8 8 7 7 7 7
10 10 10 10 10 10 10 10 10 10 10 10 10 9 9 9 9 9 9 9 9 9 8 9 9 8 8 8 8 8 8 8 8 8 8 8 8 8 7 7 7 7 7 7
10 10 10 10 10 10 10 10 10 10 10 10 10 9 9 9 9 9 9 9 9 9 8 8 8 8 8 8 8 8 8 8 8 8 8 8 7 7 7 7 7 7 7 6
10 10 10 10 10 10 10 10 10 10 10 10 10 10 9 9 9 9 9 9 9 9 9 9 8 9 9 9 8 8 8 8 8 8 8 8 7 7 7 7 7 6 6 6

GEFSNGP_850_meantemp_222.txt.gz
Temperature
29 30 30 30 30 31 30 30 30 30 29 29 29 28 28 27 26 26 25 24 24 23 23 23 23 23 22 22 22 21 21 20 20 20 19 19 19 19 19 19 19 19 18 18
27 29 30 30 30 30 30 30 30 30 29 29 28 27 27 26 26 25 24 23 22 22 22 22 21 21 21 21 21 21 20 20 19 19 19 19 19 19 18 18 18 18 18 18
26 28 28 28 29 30 30 30 30 29 28 28 27 27 26 26 25 24 24 23 22 22 21 21 21 20 20 20 20 20 20 19 19 19 19 19 18 18 18 18 18 18 18 17
25 25 25 27 30 30 29 29 29 29 28 27 27 25 25 25 24 23 23 22 22 21 21 21 20 20 20 20 19 19 19 19 19 19 18 18 18 18 18 18 18 18 17 17
24 25 26 27 28 28 27 27 28 27 27 26 25 25 24 23 23 22 22 21 21 21 20 20 20 19 19 19 19 18 18 18 18 18 18 18 18 18 17 17 17 17 17 17
24 23 24 25 27 27 27 25 26 26 25 25 25 24 23 22 22 21 21 20 20 20 19 19 19 19 18 18 18 18 18 17 17 17 17 17 17 17 17 17 17 16 16 16
23 23 24 25 26 27 24 23 24 24 24 23 23 22 21 21 21 20 20 20 19 19 19 18 18 18 18 17 17 17 17 17 17 17 17 17 16 16 16 16 16 16 16 16
23 23 23 24 25 24 23 23 23 23 22 22 21 21 20 20 20 19 19 18 18 18 18 17 17 17 17 17 16 16 16 16 16 16 16 16 16 16 16 16 16 16 15 15
22 22 22 22 22 22 22 22 22 22 21 20 20 20 20 19 19 18 18 18 17 17 17 16 16 16 16 16 16 16 16 16 16 16 16 16 15 15 15 15 15 15 15 15
21 21 21 21 21 21 21 21 21 20 20 20 19 19 19 18 18 17 17 17 17 16 16 16 15 15 15 15 15 15 15 15 15 15 15 15 15 15 15 15 14 14 14 14
19 20 20 20 20 20 20 20 20 19 19 19 18 18 18 17 17 16 16 16 16 16 15 15 15 15 15 15 14 14 14 14 14 14 14 14 14 14 14 14 14 14 14 13
19 19 19 19 19 19 19 19 19 18 18 18 18 17 17 16 16 16 16 15 15 15 15 15 14 14 14 14 14 14 14 13 13 13 14 14 14 14 14 14 14 14 13 13
18 18 18 18 18 18 18 18 18 18 17 17 17 16 16 16 15 15 15 15 15 14 14 14 14 14 13 13 13 13 13 13 13 13 13 13 13 13 13 13 13 13 13 13
17 17 17 17 17 17 17 17 17 17 17 16 16 16 15 15 15 14 14 14 14 14 14 13 13 13 13 13 13 13 13 13 13 13 13 13 13 13 13 13 13 13 13 12
17 17 17 16 16 16 16 16 16 16 16 15 15 15 15 14 14 14 14 13 13 13 13 13 13 12 12 12 12 12 12 12 12 12 12 12 12 12 12 12 12 12 12 12
16 16 16 16 16 16 16 15 15 15 15 15 14 14 14 14 13 13 13 13 13 12 12 12 12 12 12 12 12 12 12 12 12 12 12 12 12 12 12 12 11 11 11 11
16 16 16 16 15 15 15 15 15 14 14 14 14 14 13 13 13 13 12 12 12 12 12 11 11 11 11 11 11 11 11 12 12 11 11 11 11 11 11 11 11 11 11 10
15 15 15 15 15 15 15 15 14 14 14 13 13 13 13 13 12 12 12 12 12 11 11 11 11 11 11 11 11 11 11 11 11 11 11 11 11 11 11 11 10 10 10 10
15 15 15 15 14 14 14 14 14 13 13 13 13 13 12 12 12 12 11 11 11 11 11 11 11 11 11 11 11 11 11 11 11 11 11 11 10 10 10 10 10 10 10 10
14 14 14 14 14 13 13 13 13 13 12 12 12 12 12 12 12 11 11 11 11 11 11 11 11 10 10 11 11 10 10 11 11 10 10 10 10 10 10 10 10 9 9 9
14 14 14 13 13 13 13 12 12 12 12 12 12 11 11 11 11 11 11 11 11 11 10 10 10 10 10 10 10 10 10 10 10 10 10 10 10 10 9 9 9 9 9 9
13 13 13 13 13 12 12 12 12 12 11 11 11 11 11 11 11 11 11 10 10 10 10 10 10 10 10 10 10 10 10 10 10 10 10 10 9 9 9 9 9 9 9 9
13 13 13 12 12 12 12 12 11 11 11 11 11 11 11 11 11 11 10 10 10 10 10 10 10 10 10 10 10 10 10 10 10 10 9 9 9 9 9 9 9 9 8 8
12 12 12 12 12 12 12 12 11 11 11 11 11 11 11 11 11 11 10 10 10 10 10 10 10 10 10 10 10 10 10 10 9 9 9 9 9 9 9 9 9 8 8 8
12 12 12 12 12 12 12 12 11 11 11 11 11 11 11 11 11 11 10 10 10 10 10 10 10 10 10 10 10 10 9 9 9 9 9 9 9 9 9 9 8 8 8 8
12 12 12 12 12 12 12 12 12 12 12 12 11 11 11 11 11 11 10 10 10 10 10 10 10 10 10 10 10 9 9 9 9 9 9 9 9 9 9 8 8 8 8 7
12 12 12 12 12 12 12 12 12 12 12 12 12 12 11 11 11 11 11 11 11 10 10 10 10 10 10 10 10 10 9 9 9 9 9 9 9 8 8 8 8 8 8 7

GEFSNGP_850_meantemp_228.txt.gz
Temperature
21 22 23 24 24 24 23 22 21 21 21 21 21 21 21 21 21 21 21 21 22 22 21 21 22 21 21 21 21 20 20 20 20 19 19 19 19 19 19 19 19 18 18 18
20 22 23 23 24 24 24 23 22 22 21 20 21 21 21 21 21 20 21 21 21 21 21 21 21 21 21 20 20 20 19 19 19 19 19 19 19 19 19 18 18 18 18 18
18 20 21 21 22 23 22 22 22 21 20 20 20 20 20 20 20 20 20 20 20 20 20 20 20 20 20 20 20 19 19 19 19 18 18 18 18 18 18 18 18 18 17 17
17 19 20 19 21 22 21 21 21 20 20 20 19 20 20 20 20 20 20 20 19 19 20 20 20 20 20 19 19 19 19 19 18 18 18 18 18 18 17 17 17 17 17 17
16 17 18 20 21 21 20 19 19 19 19 19 20 19 19 20 20 20 20 20 20 19 19 19 19 19 19 19 19 18 18 18 18 18 18 18 17 17 17 17 17 16 16 16
16 17 18 18 21 21 20 18 19 18 18 18 18 17 17 19 19 19 19 19 19 19 19 19 19 18 18 18 18 18 18 18 17 17 17 17 17 17 16 16 16 16 16 16
15 16 17 18 20 20 18 17 18 18 18 18 17 17 18 18 18 19 19 19 19 18 18 18 18 18 18 18 17 17 17 17 17 17 16 16 16 16 16 16 16 15 15 15
14 15 16 17 18 17 16 17 17 18 18 18 18 18 17 17 17 18 18 18 18 18 18 18 18 18 17 17 17 17 16 16 16 16 16 16 16 15 16 15 15 15 15 15
14 15 16 17 17 17 18 17 17 17 17 17 17 17 17 17 17 17 17 17 17 18 18 17 17 17 17 17 16 16 16 16 16 16 15 15 15 15 15 15 15 15 14 14
14 15 16 17 17 17 17 17 17 17 17 17 17 16 16 16 16 16 16 17 17 17 17 17 16 16 16 16 16 15 15 15 15 15 15 15 14 14 14 14 14 14 14 14
13 14 15 16 16 17 17 17 17 16 16 16 16 16 16 16 16 16 16 16 16 16 16 16 16 15 15 15 15 15 15 14 14 14 14 14 14 14 14 14 14 14 14 13
13 14 13 15 16 16 16 16 16 16 15 15 15 15 15 15 15 15 15 15 15 15 15 15 15 15 14 14 14 14 14 14 14 14 13 13 13 13 13 13 13 13 13 13
15 15 15 15 15 15 15 15 15 15 15 15 15 15 15 15 15 15 15 15 15 15 15 14 14 14 14 14 14 14 14 13 13 13 13 13 13 13 12 12 12 12 12 12
15 15 15 15 15 15 15 15 15 14 15 15 15 15 14 14 14 14 14 14 14 14 14 14 14 14 13 13 13 13 13 13 13 12 12 12 12 12 12 12 12 12 12 12
15 15 14 14 14 14 14 14 14 14 14 14 14 14 14 14 14 14 14 14 14 13 13 13 13 13 13 13 13 13 13 12 12 12 12 12 12 12 12 11 11 11 11 11
14 14 14 14 14 14 14 14 13 13 14 14 14 14 14 13 13 13 13 13 13 13 13 13 12 12 12 12 12 12 12 12 12 12 12 11 11 11 11 11 11 11 11 11
13 13 13 13 13 13 13 13 13 14 13 13 13 13 13 13 13 13 13 12 12 12 12 12 12 12 12 12 12 12 12 11 11 11 11 11 11 11 11 11 10 10 10 10
13 13 13 13 13 13 13 13 13 13 13 13 13 13 13 13 12 12 12 12 12 12 12 12 11 11 11 11 11 11 11 11 11 11 11 11 11 11 10 10 10 10 10 10
13 13 13 13 13 13 13 13 13 12 12 12 12 12 12 12 12 12 12 12 11 11 11 11 11 11 11 11 11 11 11 11 11 10 10 10 10 10 10 10 10 9 9 9
13 13 13 13 13 12 12 12 12 12 12 12 12 12 11 11 11 11 11 11 11 11 11 11 11 11 11 11 11 11 11 10 10 10 10 10 10 10 10 9 9 9 9 9
12 12 12 12 12 12 12 12 12 12 12 12 11 11 11 11 11 11 11 11 11 11 11 11 11 11 11 11 11 10 10 10 10 10 10 10 10 9 9 9 9 9 9 8
12 12 12 12 12 12 12 12 12 11 11 11 11 11 11 10 10 10 10 10 10 10 10 10 10 10 10 10 10 10 10 10 10 10 9 9 9 9 9 9 8 8 8 8
11 11 12 12 12 12 12 11 11 11 11 11 11 11 11 10 10 10 10 10 10 10 10 10 10 10 10 10 10 10 10 10 9 9 9 9 9 9 9 8 8 8 8 8
11 11 11 11 11 11 11 11 11 11 11 11 11 11 11 10 10 10 10 10 10 10 10 10 10 10 10 10 10 10 9 9 9 9 9 9 9 9 8 8 8 8 8 8
11 11 11 11 11 11 11 11 11 11 11 11 11 11 11 11 10 10 10 10 10 10 10 10 10 10 10 10 9 9 9 9 9 9 9 9 9 8 8 8 8 8 8 8
11 11 11 11 11 11 11 11 11 11 11 11 11 11 11 11 11 10 10 10 10 10 10 10 10 10 10 9 9 9 9 9 9 9 9 9 8 8 8 8 8 8 7 7
11 11 11 11 11 11 11 11 11 11 11 11 11 11 11 11 11 11 10 10 10 10 10 10 10 10 9 9 9 9 9 9 9 9 9 8 8 8 8 8 8 7 7 7

GEFSNGP_850_meantemp_234.txt.gz
Temperature
17 18 19 20 20 19 19 18 18 19 19 18 18 17 17 18 18 19 19 20 20 20 21 21 21 21 21 21 20 20 20 20 19 19 19 19 19 18 18 18 18 18 18 18
18 19 19 19 20 20 19 19 19 19 18 17 17 17 17 17 18 18 18 19 19 20 20 20 20 20 20 20 20 20 20 19 19 19 19 18 18 18 18 18 18 17 17 17
16 17 19 18 19 19 18 18 18 18 18 16 16 16 17 17 17 18 18 18 19 19 20 20 20 20 20 20 20 19 19 19 19 18 18 18 18 18 17 17 17 17 17 17
14 17 18 18 18 18 18 17 17 17 16 16 16 17 17 17 17 18 18 18 19 19 19 19 19 19 19 19 19 19 19 18 18 18 18 18 17 17 17 17 17 17 17 16
13 15 16 17 18 17 17 17 16 16 16 16 16 16 16 17 17 18 18 18 19 19 19 19 19 19 18 18 18 18 18 18 18 18 17 17 17 17 17 16 16 16 16 16
13 15 16 17 17 17 17 16 16 15 15 15 15 15 15 17 17 17 18 18 18 18 18 18 18 18 18 18 18 18 17 17 17 17 17 16 16 16 16 16 16 16 16 16
13 14 15 16 16 17 17 16 16 15 15 15 15 15 16 16 16 17 17 17 17 17 17 18 18 17 18 18 17 17 17 17 16 16 16 16 16 16 16 15 15 15 15 15
12 13 14 15 15 15 15 15 15 15 15 15 15 16 16 16 16 16 16 16 16 17 17 17 17 17 17 17 17 17 17 16 16 16 15 15 15 15 15 15 15 15 14 14
12 13 14 14 15 16 16 15 16 16 15 15 15 15 15 15 15 15 16 16 16 16 16 16 16 16 17 17 17 16 16 15 15 15 15 15 15 15 14 14 14 14 14 14
11 12 13 14 15 16 16 16 16 16 15 15 15 15 15 15 15 15 15 15 15 15 15 16 16 16 16 16 16 15 15 15 15 14 14 14 14 14 14 14 14 13 13 13
11 12 13 14 15 15 15 15 15 15 15 15 15 15 15 14 14 14 15 15 15 15 15 15 15 15 15 15 15 15 14 14 14 14 14 14 13 13 13 13 13 13 13 12
11 12 12 13 14 15 15 15 15 15 14 14 14 14 14 14 14 14 14 14 14 14 14 14 14 14 14 14 14 14 14 14 13 13 13 13 13 13 13 12 12 12 12 12
13 14 13 13 14 14 14 14 14 14 14 14 14 14 14 14 14 14 14 14 14 14 14 14 14 13 14 13 13 13 13 13 13 13 13 13 12 12 12 12 12 12 11 11
13 13 12 13 13 13 14 14 14 14 14 14 13 13 13 13 13 13 13 13 13 13 13 13 13 13 13 13 13 13 13 13 12 12 12 12 12 12 11 11 11 11 11 11
13 13 13 13 13 13 13 13 13 13 13 13 13 13 13 13 13 13 13 13 13 13 13 13 13 12 12 12 12 12 12 12 12 12 12 12 11 11 11 11 11 11 11 10
12 12 12 12 12 13 13 13 12 12 13 13 12 12 12 12 12 12 12 12 12 12 12 12 12 12 12 12 12 12 12 12 12 11 11 11 11 11 11 10 10 10 10 10
11 12 12 12 12 12 12 12 12 12 12 12 12 12 12 12 12 12 12 12 12 12 12 12 12 12 12 12 11 11 11 11 11 11 11 11 10 10 10 10 10 10 10 10
12 12 12 12 12 12 12 12 12 11 11 11 11 11 11 12 12 12 12 12 12 12 12 12 11 11 11 11 11 11 11 11 11 11 11 10 10 10 10 10 10 10 9 9
12 12 12 12 12 12 11 11 11 11 11 11 11 11 11 11 11 11 11 11 11 11 11 11 11 11 11 11 11 11 10 10 10 10 10 10 10 10 9 9 9 9 9 9
12 11 11 11 11 11 11 11 11 11 11 11 11 11 11 11 11 11 11 11 11 11 11 11 11 11 11 10 10 10 10 10 10 10 10 10 9 9 9 9 9 9 9 8
11 11 11 11 11 11 11 11 11 11 11 11 11 11 11 11 11 10 10 10 10 10 10 10 10 10 10 10 10 10 10 10 10 10 9 9 9 9 9 9 9 9 8 8
11 11 11 11 11 11 11 11 11 11 11 11 11 11 11 11 10 10 10 10 10 10 10 10 10 10 10 10 10 10 10 9 9 9 9 9 9 9 9 8 8 8 8 8
11 11 11 11 10 10 11 11 11 11 11 11 11 11 10 10 10 10 10 10 10 10 10 10 10 10 10 10 10 9 9 9 9 9 9 9 9 8 8 8 8 8 8 8
11 11 11 10 10 10 10 10 10 11 11 11 10 10 10 10 10 10 10 10 10 10 10 10 10 10 10 9 9 9 9 9 9 9 8 8 8 8 8 8 8 8 8 7
11 10 10 10 10 10 10 10 10 10 10 10 10 10 10 10 10 10 10 10 10 10 10 10 9 9 9 9 9 9 9 9 9 8 8 8 8 8 8 8 7 7 7 7
10 10 10 10 10 10 10 10 10 10 10 10 10 10 10 10 10 10 10 10 10 10 10 9 9 9 9 9 9 9 9 9 8 8 8 8 8 8 7 7 7 7 7 7
10 10 10 10 10 10 10 10 10 10 10 10 10 10 10 10 10 10 10 10 10 10 9 9 9 9 9 9 9 8 8 8 8 8 8 8 7 7 7 7 7 7 6 6

GEFSNGP_850_meantemp_240.txt.gz
Temperature
26 27 27 27 27 27 27 28 28 28 28 28 27 26 25 23 22 22 22 21 21 20 20 20 19 19 19 19 19 19 19 18 19 18 18 18 18 18 18 18 18 18 17 17
25 26 26 26 26 26 27 27 27 27 27 28 26 24 23 22 22 21 21 20 20 20 19 19 19 19 19 19 18 18 18 18 18 18 18 18 18 18 18 18 17 17 17 17
25 25 25 25 26 26 26 26 26 26 26 26 25 24 23 22 21 21 20 20 19 19 19 18 18 18 18 18 18 18 18 18 18 18 18 18 17 17 17 17 17 17 17 16
24 24 23 25 25 25 25 25 25 25 25 24 24 22 21 21 20 20 19 19 18 18 18 18 18 18 18 18 18 18 17 17 17 17 17 17 17 17 17 17 16 16 16 16
23 23 24 24 24 24 24 24 24 24 23 23 22 22 21 20 19 19 18 18 18 18 18 18 17 17 18 17 17 17 17 17 17 17 17 17 16 17 16 16 16 16 16 16
22 22 23 24 23 23 23 23 23 23 22 22 21 23 22 19 18 18 18 17 17 17 17 17 17 17 17 17 17 17 17 17 17 16 16 16 16 16 16 16 16 16 15 15
21 22 23 22 22 22 22 22 21 21 21 20 20 21 19 18 17 17 17 17 17 16 16 16 16 16 16 17 17 16 16 16 16 16 16 16 16 16 16 15 15 15 15 15
21 21 22 21 21 21 20 19 19 19 19 19 19 18 18 17 16 16 16 16 16 15 15 15 16 16 16 16 16 16 16 16 16 16 16 16 16 15 15 15 15 15 14 14
20 21 19 19 19 18 18 18 18 18 18 18 18 17 17 16 16 16 15 15 15 15 15 15 15 15 15 16 16 16 16 16 15 15 15 15 15 15 14 14 14 14 14 14
19 19 19 18 18 17 17 17 17 17 17 17 17 17 16 16 15 15 15 15 15 14 14 14 14 15 15 15 15 15 15 15 14 14 14 14 14 14 14 14 14 14 14 14
18 18 18 17 17 16 16 16 16 16 16 16 16 16 15 15 14 14 14 14 14 14 14 14 14 14 14 14 14 14 14 14 14 14 14 14 13 13 13 13 13 13 13 13
18 17 17 17 16 15 15 15 15 15 15 15 15 15 15 14 14 14 14 14 13 13 13 13 13 13 13 13 13 13 13 13 13 13 13 13 13 13 13 13 13 13 13 13
16 15 15 15 15 15 15 15 14 14 14 14 14 14 14 14 13 13 13 13 13 13 13 13 13 13 13 13 13 13 13 13 13 13 13 13 13 13 13 13 13 12 12 12
14 14 14 14 14 14 14 14 14 14 14 14 13 13 13 13 13 13 13 13 13 13 13 13 12 12 12 12 12 12 12 12 12 12 12 12 12 12 12 12 12 12 12 12
14 14 14 14 13 13 13 13 13 13 13 13 13 12 12 12 12 12 12 12 12 12 12 12 12 12 12 12 12 12 12 12 12 12 12 12 12 12 12 12 12 12 11 11
14 13 13 13 13 13 13 13 13 13 13 12 12 12 12 12 12 12 12 12 12 12 12 12 12 12 12 12 12 12 12 12 11 11 11 11 11 11 11 11 11 11 11 11
13 13 13 13 13 13 13 13 12 12 12 12 11 11 11 11 11 11 11 12 12 12 11 11 12 11 11 11 11 11 11 11 11 11 11 11 11 11 11 11 11 11 10 10
12 12 12 12 12 12 12 12 12 12 11 11 11 11 11 11 11 11 11 11 11 11 11 11 11 11 11 11 11 11 11 11 11 11 11 10 10 10 10 10 10 10 10 10
12 12 12 12 11 11 12 11 11 11 11 11 11 11 11 11 11 11 11 11 11 11 11 11 11 11 11 11 11 11 11 10 10 10 10 10 10 10 10 10 10 10 10 10
12 12 12 11 11 11 11 11 11 11 11 11 11 10 10 10 10 10 10 10 10 10 10 10 11 11 10 10 10 10 10 10 10 10 10 10 10 10 10 10 10 10 9 9
11 11 11 11 11 11 11 11 11 10 10 10 10 10 10 10 10 10 10 10 10 10 10 10 10 10 10 10 10 10 10 10 10 10 10 10 9 9 9 9 9 9 9 9
11 11 11 11 11 11 11 10 10 10 10 10 10 10 10 10 10 10 10 10 10 10 10 10 10 10 10 10 10 10 10 10 10 9 9 9 9 9 9 9 9 9 9 8
11 11 11 11 10 10 10 10 10 10 10 10 10 10 10 10 11 11 10 10 10 10 10 10 10 10 10 10 10 10 10 9 9 9 9 9 9 9 9 8 8 8 8 8
10 10 10 10 10 10 10 10 10 10 10 10 10 10 10 10 10 10 10 10 10 10 10 10 10 9 9 9 9 9 9 9 9 9 9 9 9 9 8 8 8 8 7 7
10 10 10 10 10 10 10 10 10 10 10 10 10 10 10 10 10 10 10 10 10 10 9 9 9 9 9 9 9 9 9 9 9 8 8 8 8 8 8 8 7 7 7 7
10 10 10 10 10 10 10 10 10 10 10 10 10 10 10 10 10 10 10 9 9 9 9 9 9 9 9 9 9 9 9 8 8 8 8 8 8 8 7 7 7 7 7 6
10 10 10 10 10 10 10 10 10 10 10 10 10 10 10 10 10 10 9 9 9 9 9 9 9 9 9 8 8 8 8 8 8 8 8 7 7 7 7 7 6 6 6 6

GEFSNGP_850_meantemp_246.txt.gz
Temperature
29 29 30 30 30 30 30 30 30 30 29 29 29 29 28 27 26 26 25 25 24 23 22 22 22 21 21 21 20 20 20 19 19 19 19 18 18 18 18 18 18 18 18 18
27 29 29 29 29 30 30 30 30 30 29 29 28 28 27 27 26 25 24 23 22 22 21 21 20 20 20 20 20 20 19 19 19 19 18 18 18 18 18 18 18 18 18 17
26 28 28 27 28 29 29 29 29 28 28 28 27 26 26 26 25 24 23 22 21 21 20 20 20 20 19 19 19 19 19 19 18 18 18 18 18 18 18 17 17 17 17 17
25 26 25 27 29 29 28 29 29 28 27 27 26 26 25 24 24 23 22 21 20 20 20 19 19 19 19 18 19 18 18 18 18 18 18 17 17 17 17 17 17 17 17 17
24 25 25 27 28 28 27 26 27 27 26 26 25 25 24 23 23 22 21 20 20 19 19 19 19 18 18 18 18 18 18 18 18 17 17 17 17 17 17 17 17 17 17 17
24 23 24 25 27 27 27 25 25 25 24 24 24 24 23 22 21 21 20 20 19 19 19 18 18 18 18 17 17 17 17 17 17 17 17 17 17 17 17 16 16 16 16 16
23 23 24 26 26 26 24 23 23 23 23 22 22 22 21 21 20 20 19 19 19 18 18 18 18 17 17 17 17 17 17 17 17 17 17 17 16 16 16 16 16 16 16 16
22 22 23 24 24 23 22 22 22 22 21 21 20 20 20 20 19 19 19 18 18 18 17 17 17 17 16 16 16 16 16 16 16 16 16 16 16 16 16 16 16 16 15 15
22 22 22 22 21 21 21 21 21 21 20 20 19 19 19 19 18 18 18 18 17 17 17 16 16 16 16 15 15 16 16 16 16 16 16 16 16 15 15 15 15 15 15 15
21 21 22 21 20 20 20 20 20 20 19 19 19 19 18 18 18 17 17 17 17 16 16 16 16 15 15 15 15 15 15 15 15 15 15 15 15 15 15 15 15 15 15 15
20 21 20 20 19 19 19 19 19 19 19 18 18 18 18 17 17 17 16 16 16 16 15 15 15 15 15 15 15 15 14 15 15 15 14 14 14 14 14 14 14 14 14 14
20 20 20 19 19 18 18 18 18 18 18 17 17 17 17 16 16 16 16 15 15 15 15 14 14 14 14 14 14 14 14 14 14 14 14 14 14 14 14 14 14 14 14 14
19 19 18 18 18 18 18 18 17 17 17 17 16 16 16 16 15 15 15 15 14 14 14 14 14 14 14 14 14 13 13 13 13 13 13 14 14 14 13 13 13 13 13 13
18 17 17 17 17 17 17 17 17 17 16 16 16 16 15 15 15 15 14 14 14 14 13 13 13 13 13 13 13 13 13 13 13 13 13 13 13 13 13 13 13 13 13 13
17 17 17 17 17 17 17 16 16 16 16 15 15 15 15 14 14 14 14 13 13 13 13 13 13 13 13 13 13 13 13 13 13 13 13 13 13 13 13 13 13 13 12 12
17 17 16 16 16 16 16 16 16 15 15 15 15 14 14 14 13 13 13 13 13 13 13 12 12 12 12 12 12 12 12 12 12 12 12 13 12 12 12 12 12 12 12 12
16 16 16 16 16 15 15 15 15 15 14 14 14 14 13 13 13 13 12 12 12 12 12 12 12 12 12 12 12 12 12 12 12 12 12 12 12 12 12 12 12 12 11 11
16 15 15 15 15 15 14 14 14 14 14 13 13 13 13 12 12 12 12 12 12 12 12 12 12 12 12 12 12 12 12 12 12 12 12 12 12 12 12 12 12 11 11 11
15 15 14 14 14 14 14 14 14 13 13 13 13 12 12 12 12 12 12 12 11 11 11 11 12 12 12 12 12 12 12 12 12 12 12 12 12 12 12 11 11 11 11 11
14 14 14 14 14 14 14 13 13 13 13 12 12 12 12 12 12 12 12 11 11 11 11 11 11 11 12 12 12 12 12 12 12 12 12 12 11 11 11 11 11 11 10 10
14 14 14 13 13 13 13 13 13 13 12 12 12 12 12 12 12 11 11 11 11 11 11 11 11 11 11 12 12 12 12 12 12 11 11 11 11 11 11 11 11 10 10 10
13 13 13 13 13 13 13 13 12 12 12 12 12 12 11 11 11 11 11 11 11 11 11 11 11 11 11 11 11 11 12 11 11 11 11 11 11 11 10 10 10 10 10 10
13 13 13 12 12 12 12 12 12 12 12 11 11 11 11 11 11 11 11 11 11 11 11 11 11 11 11 11 11 11 11 11 11 11 11 11 10 10 10 10 10 9 9 9
12 12 12 12 12 12 12 12 12 12 11 11 12 11 11 11 11 11 11 11 11 11 11 11 11 11 11 11 11 11 10 10 10 10 10 10 10 10 9 9 9 9 9 8
12 12 12 12 12 12 12 12 11 12 12 12 12 12 11 11 11 11 11 11 11 11 10 10 10 10 10 10 10 10 10 10 10 10 10 9 9 9 9 9 8 8 8 8
12 12 12 12 12 12 12 12 12 12 12 12 12 11 11 11 11 11 11 11 10 10 10 10 10 10 10 10 10 10 10 10 9 9 9 9 9 9 8 8 8 8 7 7
12 12 12 12 12 12 12 12 12 12 12 12 11 11 11 11 11 11 11 10 10 10 10 10 10 10 10 10 10 10 9 9 9 9 9 8 8 8 8 8 7 7 7 7

GEFSNGP_850_meantemp_252.txt.gz
Temperature
21 22 23 24 24 24 23 21 21 21 20 20 20 20 21 21 21 21 21 21 21 21 21 21 20 20 20 20 20 19 19 19 19 19 18 18 18 18 18 18 18 18 17 18
21 22 23 23 24 24 23 22 21 21 20 20 20 21 20 20 20 20 20 20 20 20 20 20 20 20 20 20 19 19 19 19 19 19 18 18 18 18 18 18 18 17 17 17
19 20 22 21 22 22 22 21 21 20 19 19 19 19 20 20 20 19 19 19 19 20 20 19 19 19 19 19 19 19 18 18 18 18 18 18 18 18 17 17 17 17 17 17
17 20 20 20 21 22 21 20 20 19 19 19 18 19 20 20 19 19 19 19 19 19 19 19 19 19 19 18 18 18 18 18 18 18 17 17 17 17 17 17 17 17 17 17
16 18 19 20 21 21 20 19 19 19 18 18 19 18 18 19 19 19 19 19 19 18 18 18 18 18 18 18 18 18 17 17 17 17 17 17 17 17 17 17 17 17 17 16
16 18 18 19 21 22 20 18 18 18 17 18 18 16 16 18 18 19 18 18 18 18 18 17 17 17 17 17 17 17 17 17 17 17 17 17 17 16 16 16 16 16 16 16
16 17 17 19 20 21 19 17 18 18 17 17 16 16 17 18 18 18 18 18 18 18 17 17 17 17 17 17 17 17 17 17 17 16 16 16 16 16 16 16 16 16 16 15
15 16 17 18 18 17 16 17 18 18 18 17 17 17 17 17 18 18 17 17 17 17 17 17 16 16 16 16 16 16 16 16 16 16 16 16 16 15 15 15 15 15 15 15
14 15 16 18 17 18 18 17 17 18 17 17 17 17 17 17 17 17 17 16 16 16 16 16 16 16 16 16 16 15 15 15 15 15 15 15 15 15 15 15 14 15 15 15
14 15 16 17 17 18 18 18 17 17 17 17 17 17 17 16 16 16 16 16 16 16 16 16 16 15 15 15 15 15 15 15 15 15 15 15 14 14 14 14 14 14 14 14
14 15 16 16 17 17 17 17 17 17 17 17 16 16 16 16 16 16 16 16 16 16 15 15 15 15 15 15 15 15 15 14 14 14 14 14 14 14 14 14 14 14 14 14
13 14 14 15 17 17 17 17 16 16 16 16 16 16 16 16 15 15 15 15 15 15 15 15 15 15 15 15 14 14 14 14 14 14 14 13 13 13 13 13 13 13 13 13
16 16 16 16 16 16 16 16 16 16 15 15 15 15 15 15 15 15 15 15 15 15 15 15 15 15 14 14 14 14 14 14 14 13 13 13 13 13 13 13 13 13 13 13
16 16 16 16 16 16 16 16 16 15 15 15 15 15 15 15 14 14 14 14 14 14 14 14 14 14 14 14 14 14 13 13 13 13 13 13 12 12 12 12 12 12 12 12
16 16 16 16 16 16 16 15 15 15 15 15 14 14 14 14 14 14 14 14 14 14 14 13 13 13 13 13 13 13 13 13 13 13 12 12 12 12 12 12 12 12 12 12
15 16 16 15 15 15 15 15 15 14 14 14 14 14 14 14 14 14 13 13 13 13 13 13 13 13 13 13 13 13 12 12 12 12 12 12 12 12 12 12 12 11 11 11
15 15 15 15 15 15 15 15 14 14 14 14 13 13 13 13 13 13 13 13 13 12 12 12 12 12 12 12 12 12 12 12 12 12 12 12 12 12 11 11 11 11 11 11
15 15 15 14 14 14 14 14 14 14 13 13 13 13 13 13 13 13 12 12 12 12 12 12 12 12 12 12 12 12 12 12 12 12 12 11 11 11 11 11 11 11 11 10
15 14 14 14 14 14 14 13 13 13 13 13 13 12 12 12 12 12 12 12 12 12 11 11 11 11 11 11 11 11 11 11 11 11 11 11 11 11 11 11 11 11 10 10
14 14 14 14 14 14 13 13 13 13 13 12 12 12 12 12 12 12 12 11 11 11 11 11 11 11 11 11 11 11 11 11 11 11 11 11 11 11 11 11 10 10 10 10
13 13 13 13 13 13 13 13 13 12 12 12 12 12 12 12 12 12 11 11 11 11 11 11 11 11 11 11 11 11 11 11 11 11 11 11 11 10 10 10 10 10 9 9
13 13 13 13 13 13 12 12 12 12 12 12 12 12 12 12 12 11 11 11 11 11 11 11 11 11 11 11 11 11 11 11 10 10 10 10 10 10 10 10 10 9 9 9
13 13 12 12 12 12 12 12 12 12 12 12 12 12 12 11 11 11 11 11 11 11 11 11 11 11 11 11 11 11 10 10 10 10 10 10 10 10 9 9 9 9 9 9
12 12 12 12 12 12 12 12 12 12 12 12 11 11 11 11 11 11 11 11 11 11 11 10 10 10 10 10 10 10 10 10 10 10 9 9 9 9 9 9 9 9 8 8
12 12 12 12 12 12 12 12 11 11 11 11 11 11 11 11 11 11 11 11 11 11 10 10 10 10 10 10 10 10 9 9 9 9 9 9 9 9 8 8 8 8 8 8
12 12 12 12 12 12 12 11 11 11 11 11 11 11 11 11 11 11 11 10 10 10 10 10 10 10 10 10 9 9 9 9 9 9 9 9 8 8 8 8 8 7 7 7
12 12 12 12 11 11 11 11 11 11 11 11 11 11 11 11 11 11 10 10 10 10 10 10 9 9 9 9 9 9 9 9 8 8 8 8 8 8 8 7 7 7 7 7